Location: Atherton
(17.2661°S, 145.4859°E)
Time: 23:20:33
(UTC+10:00)

Transit 2A - Pass Details

Date: 27 June 2025
Orbit: 598 x 948 km, 66.7° (Epoch: 19 July)

Event Time Altitude Azimuth Distance (km) Brightness Sun altitude
Rises 08:25:21 0° 356° (N) 3,357 9.7 19.6°
Reaches altitude 10° 08:27:49 10° 2° (N) 2,479 9.2 20.1°
Maximum altitude 08:33:17 43° 72° (ENE) 1,244 8.5 21.1°
Drops below altitude 10° 08:39:07 10° 142° (SE) 2,656 8.9 22.3°
Sets 08:41:50 0° 148° (SSE) 3,622 9.5 22.8°
